Location: Dittelbrunn
(50.0738°N, 10.2196°E)
Time: 23:24:02
(UTC+00:00)

Cosmos 1536 Rocket - Pass Details

Date: 18 September 2020
Orbit: 606 x 632 km, 82.5° (Epoch: 31 October)

Event Time Altitude Azimuth Distance (km) Brightness Sun altitude
Rises 18:31:03 0° 355° (N) 2,915 7.3 -11.2°
Reaches altitude 10° 18:33:24 10° 2° (N) 2,008 6.4 -11.6°
Maximum altitude 18:37:38 43° 74° (ENE) 894 4.0 -12.2°
Enters shadow 18:41:16 14° 143° (SE) 1,780 5.4 -12.8°
